Home > Weather > Gustavia > Past weeks

Weather for the Past 2 Weeks in Gustavia, Saint Barthélemy

Now
82 °F

Partly sunny.


Feels Like: 89 °F
Forecast: 78 / 82 °F
Wind: 6 mph from Southeast

Location: Juliana Airport - Saint Maarten

Current Time: Apr 30, 2016 at 3:01:16 PM

Latest Report: Apr 30, 2016 at 2:00 PM


Visibility: N/A

Pressure: 29.95 "Hg

Humidity: 79%

Dew Point: 75 °F

Location of GustaviaLocation

Historic Weather in Gustavia — Graph

°F

Gustavia Temperature Yesterday

Maximum temperature yesterday: 84 °F (at 9:00 AM)
Minimum temperature yesterday: 81 °F (at 12:00 AM)
Average temperature yesterday: 82 °F

High & Low Weather Summary for the Past Weeks

 TemperatureHumidityPressure
High86 °F (Apr 15, 3:00 PM)100% (Apr 19, 2:00 AM)30.07 "Hg (Apr 19, 2:00 AM)
Low73 °F (Apr 19, 1:00 AM)49% (Apr 15, 3:00 PM)29.83 "Hg (Apr 26, 3:00 AM)
Average81 °F78%29.94 "Hg
* Reported Apr 15 1:00 PM — Apr 30 1:00 PM, Gustavia, Weather by CustomWeather, © 2016

Note: Actual official high and low records may vary slightly from our data, if they occured in-between our weather recording intervals... More about our weather records

Advertising

Gustavia Weather History for the Previous 24 Hours

Scroll right to see more
 ConditionsComfort  
Time TempWeatherWind HumidityBarometerVisibility
1:00 PM
Sat, Apr 30
82 °FPassing clouds.7 mph79%29.95 "HgN/A
12:00 PM82 °FPassing clouds.10 mph79%29.95 "HgN/A
11:00 AM82 °FPassing clouds.12 mph79%29.95 "HgN/A
10:00 AM82 °FPassing clouds.13 mph79%29.95 "HgN/A
9:00 AM82 °FPassing clouds.13 mph79%29.95 "HgN/A
8:00 AM82 °FPassing clouds.14 mph79%29.95 "HgN/A
7:00 AM81 °FPassing clouds.14 mph84%29.95 "HgN/A
6:00 AM81 °FScattered clouds.15 mph84%29.92 "HgN/A
5:00 AM81 °FPassing clouds.15 mph84%29.89 "HgN/A
4:00 AM81 °FPassing clouds.15 mph84%29.89 "HgN/A
3:00 AM81 °FPassing clouds.16 mph84%29.89 "HgN/A
2:00 AM81 °FPassing clouds.18 mph84%29.89 "HgN/A
1:00 AM81 °FPassing clouds.18 mph84%29.92 "HgN/A
12:00 AM81 °FPassing clouds.18 mph89%29.92 "HgN/A
11:00 PM
Fri, Apr 29
82 °FPassing clouds.16 mph84%29.95 "HgN/A
10:00 PM82 °FPassing clouds.13 mph79%29.95 "HgN/A
9:00 PM82 °FPassing clouds.13 mph79%29.95 "HgN/A
8:00 PM82 °FPassing clouds.9 mph79%29.95 "HgN/A
7:00 PM82 °FPassing clouds.9 mph79%29.95 "HgN/A
6:00 PM82 °FPassing clouds.9 mph79%29.92 "HgN/A
5:00 PM82 °FPassing clouds.9 mph79%29.92 "HgN/A
4:00 PM84 °FPassing clouds.7 mph74%29.92 "HgN/A
3:00 PM84 °FPassing clouds.10 mph74%29.92 "HgN/A
Weather by CustomWeather, © 2016

See weather overviewHow to use our weather pages